This demonstration page uses our WeatherBlox Daily Observations layout. Learn more.

Left ArrowRight Arrow

Hourly Observations for August 11, 2020

Temp ( °F °C ) Dew Point ( °F °C ) Humidity (%) Winds ( mph kmh ) Pressure ( in mb ) Visibility ( mi km ) Precip ( " mm )
12:13 am 00:13 Cloudy with Rain 69 20.6 69 20.6 100 100 N N/A 30.02 1017 2 3.21868 0.09 2.286
12:26 am 00:26 Cloudy with Rain 69 20.6 69 20.6 100 100 N N/A 30 1016 4 6.43736 0.12 3.048
12:53 am 00:53 Partly Cloudy with Light Rain 69 20.6 69 20.6 100 100 VRB 3 6 29.98 1015 10 16.0934 0.14 3.556
1:53 am 01:53 Mostly Clear with Light Rain 70 21 N/A N/A N N/A 29.89 1012 10 16.0934 0.01 0.254
2:53 am 02:53 Clear 66 19 N/A N/A N N/A 29.9 1013 9 14.48406 0.001 0.001
3:53 am 03:53 Clear 68 20 68 20 100 100 WSW 3 6 29.92 1013 10 16.0934 N/A
4:01 am 04:01 Partly Cloudy 68 20 68 20 100 100 W 7 11 29.94 1014 10 16.0934 N/A
4:25 am 04:25 Mostly Cloudy 68 20 68 20 100 100 W 5 7 29.95 1014 10 16.0934 N/A
4:53 am 04:53 Cloudy 68 20 68 20 100 100 VRB 5 7 29.97 1015 10 16.0934 N/A
5:14 am 05:14 Partly Cloudy 68 20 68 20 100 100 N N/A 29.97 1015 10 16.0934 N/A
5:53 am 05:53 Clear 67 19.4 67 19.4 100 100 N N/A 29.97 1015 8 12.87472 N/A
6:53 am 06:53 Sunny 68 20 67 19.4 96 96 N N/A 29.97 1015 10 16.0934 N/A
7:53 am 07:53 Mostly Sunny 70 21.1 68 20 93 93 VRB 3 6 30 1016 10 16.0934 0.001 0.001
8:25 am 08:25 Mostly Sunny 70 21.1 68 20 93 93 W 7 11 30 1016 10 16.0934 0.001 0.001
8:40 am 08:40 Mostly Cloudy 70 21.1 68 20 93 93 WNW 8 13 30 1016 10 16.0934 0.001 0.001
8:53 am 08:53 Cloudy 70 21.1 68 20 93 93 WNW 7 11 30.01 1016 10 16.0934 0.001 0.001
9:16 am 09:16 Cloudy 71 21.7 68 20 90 90 NW 6 9 30.01 1016 10 16.0934 N/A
9:32 am 09:32 Cloudy 71 21.7 68 20 90 90 W 3 6 30.01 1016 10 16.0934 N/A
9:53 am 09:53 Cloudy 71 21.7 68 20 90 90 N N/A 30.01 1016 10 16.0934 N/A
10:28 am 10:28 Cloudy 73 22.8 68 20 84 84 WNW 8 13 30.01 1016 10 16.0934 N/A
10:53 am 10:53 Mostly Cloudy 75 23.9 69 20.6 82 82 VRB 5 7 30.02 1017 10 16.0934 N/A
11:14 am 11:14 Partly Cloudy 75 23.9 69 20.6 82 82 WSW 5 7 30.01 1016 10 16.0934 N/A
11:53 am 11:53 Sunny 79 26.1 70 21.1 74 74 VRB 3 6 30.02 1017 10 16.0934 N/A
12:17 pm 12:17 Mostly Cloudy 79 26.1 70 21.1 74 74 VRB 5 7 30 1016 10 16.0934 N/A
12:53 pm 12:53 Mostly Cloudy 80 26.7 69 20.6 69 69 N N/A 30.01 1016 10 16.0934 N/A
1:15 pm 13:15 Partly Cloudy 80 26.7 70 21.1 71 71 N N/A 30 1016 10 16.0934 N/A
1:23 pm 13:23 Mostly Cloudy 80 26.7 70 21.1 71 71 VRB 5 7 30 1016 10 16.0934 N/A
1:35 pm 13:35 Partly Cloudy 80 26.7 71 21.7 74 74 VRB 3 6 30 1016 10 16.0934 N/A
1:53 pm 13:53 Mostly Sunny 81 27.2 71 21.7 72 72 VRB 3 6 30.01 1016 10 16.0934 N/A
2:53 pm 14:53 Sunny 83 28.3 69 20.6 63 63 N N/A 29.99 1016 10 16.0934 N/A
3:53 pm 15:53 Mostly Sunny 83 28.3 70 21.1 65 65 NW 8 13 29.98 1015 10 16.0934 N/A
4:53 pm 16:53 Mostly Sunny 84 28.9 70 21.1 63 63 VRB 6 9 29.97 1015 10 16.0934 N/A
5:53 pm 17:53 Mostly Sunny 84 28.9 70 21.1 63 63 W 6 9 29.97 1015 10 16.0934 N/A
6:53 pm 18:53 Partly Cloudy 84 28.9 70 21.1 63 63 W 6 9 29.96 1015 10 16.0934 N/A
7:53 pm 19:53 Sunny 81 27.2 70 21.1 69 69 WNW 5 7 29.96 1015 10 16.0934 N/A
8:53 pm 20:53 Clear 74 23.3 70 21.1 88 88 NW 3 6 29.98 1015 10 16.0934 N/A
9:53 pm 21:53 Clear 71 21.7 69 20.6 94 94 N N/A 30 1016 10 16.0934 N/A
10:53 pm 22:53 Clear 70 21.1 69 20.6 97 97 N N/A 30 1016 10 16.0934 N/A
11:53 pm 23:53 Clear 69 20.6 68 20 96 96 N N/A 30.01 1016 10 16.0934 N/A

Powered by AerisWeather